Campo, CA

4:29 AM PDT on May 30, 2017 (GMT -0700)
Campo

Weather History for KCZZ - July, 2013

Change the Weather History Date:

Monday, July 8, 2013

  Actual Average Record
Temperature  
Mean Temperature 80 °F 72 °F  
Max Temperature 102 °F 93 °F 105 °F (1985)
Min Temperature 58 °F 51 °F 36 °F (1977)
Degree Days  
Heating Degree Days 0 0  
Month to date heating degree days 0 4  
Since 1 June heating degree days 28 60  
Since 1 July heating degree days 0 4  
Cooling Degree Days 15 7  
Month to date cooling degree days 99 52  
Year to date cooling degree days 233 174  
Since 1 June cooling degree days 206 144  
Growing Degree Days 30 (Base 50)    
Moisture  
Dew Point 44 °F    
Average Humidity 40    
Maximum Humidity 69    
Minimum Humidity 11    
Precipitation  
Precipitation 0.00 in 0.00 in 0.22 in (1984)
Month to date precipitation 0.00 0.04  
Year to date precipitation 4.78 10.19  
Since 1 July precipitation 0.00  
Snow  
Snow 0.00 in - - ()
Month to date snowfall 0.0  
Year to date snowfall 0.0  
Snow Depth 0.00 in    
Sea Level Pressure  
Sea Level Pressure 29.83 in    
Wind  
Wind Speed 7 mph (NW)    
Max Wind Speed 18 mph    
Max Gust Speed 24 mph    
T = Trace of Precipitation, MM = Missing Value Source: NWS Daily Summary

Daily Weather History Graph

Daily Weather History Graph

Search for Another Location

Airport or City:

Trip Planner

Search our weather history database for the weather conditions in past years. The results will help you decide how hot, cold, wet, or windy it might be!

Date:

Astronomy

Jul. 08, 2013 Rise Set
Actual Time 5:45 AM PDT 7:56 PM PDT
Civil Twilight 5:17 AM PDT 8:24 PM PDT
Nautical Twilight 4:42 AM PDT 8:59 PM PDT
Astronomical Twilight 4:05 AM PDT 9:36 PM PDT
Moon 6:13 AM PDT (7/8) 8:08 PM PDT (7/8)
Length of Visible Light 15h 07m
Length of Day
14h 11m
New Moon, 0% of the Moon is Illuminated
Jul 8
New Moon
Jul 15
First Quarter
Jul 22
Full
Jul 29
Last Quarter
Aug 6
New

Hourly Weather History & Observations

Time (PDT) Temp. Dew Point Humidity Pressure Visibility Wind Dir Wind Speed Gust Speed Precip Events Conditions
12:52 AM 61.0 °F 50.0 °F 67% 29.81 in - Calm Calm - N/A   Unknown
1:52 AM 62.1 °F 50.0 °F 65% 29.80 in - NE 4.6 mph - N/A   Unknown
2:52 AM 61.0 °F 50.0 °F 67% 29.80 in - NE 4.6 mph - N/A   Unknown
3:52 AM 61.0 °F 48.9 °F 64% 29.80 in - NE 4.6 mph - N/A   Unknown
4:52 AM 59.0 °F 48.9 °F 69% 29.81 in - NNE 3.5 mph - N/A   Unknown
5:52 AM 59.0 °F 46.9 °F 64% 29.83 in - ENE 5.8 mph - N/A   Unknown
6:52 AM 63.0 °F 46.0 °F 54% 29.84 in - NE 4.6 mph - N/A   Unknown
7:52 AM 73.0 °F 48.9 °F 42% 29.85 in - ENE 3.5 mph - N/A   Unknown
8:52 AM 86.0 °F 39.0 °F 19% 29.83 in - Calm Calm - N/A   Unknown
9:52 AM 93.0 °F 36.0 °F 13% 29.83 in - South 4.6 mph - N/A   Unknown
10:52 AM 97.0 °F 37.0 °F 12% 29.83 in - SSW 8.1 mph - N/A   Unknown
11:52 AM 99.0 °F 42.1 °F 14% 29.82 in - SSW 16.1 mph - N/A   Unknown
12:52 PM 100.9 °F 41.0 °F 13% 29.82 in - WSW 9.2 mph 23.0 mph N/A   Unknown
1:52 PM 100.9 °F 37.9 °F 11% 29.81 in - WSW 11.5 mph 18.4 mph N/A   Unknown
2:52 PM 100.0 °F 43.0 °F 14% 29.81 in - WSW 15.0 mph 20.7 mph N/A   Unknown
3:52 PM 100.0 °F 37.9 °F 12% 29.81 in - WNW 13.8 mph 21.9 mph N/A   Unknown
4:52 PM 98.1 °F 37.9 °F 12% 29.81 in - WNW 17.3 mph 23.0 mph N/A   Unknown
5:52 PM 95.0 °F 39.0 °F 14% 29.81 in - WNW 15.0 mph 20.7 mph N/A   Unknown
6:52 PM 93.0 °F 41.0 °F 16% 29.83 in - West 9.2 mph - N/A   Unknown
7:52 PM 82.9 °F 50.0 °F 32% 29.84 in - SW 6.9 mph - N/A   Unknown
8:52 PM 80.1 °F 50.0 °F 35% 29.85 in - Calm Calm - N/A   Unknown
9:52 PM 75.9 °F 50.0 °F 40% 29.86 in - SSW 3.5 mph - N/A   Unknown
10:52 PM 72.0 °F 46.0 °F 40% 29.87 in - NE 5.8 mph - N/A   Unknown
11:52 PM 73.9 °F 46.0 °F 37% 29.87 in - NE 3.5 mph - N/A   Unknown